TimeSAST,TemperatureF,Dew PointF,Humidity,Sea Level PressureIn,VisibilityMPH,Wind Direction,Wind SpeedMPH,Gust SpeedMPH,PrecipitationIn,Events,Conditions,WindDirDegrees,DateUTC
12:00 AM,53.6,1.4,12,30.09,-9999.0,WNW,1.2,-,N/A,,Unknown,290,2013-10-14 22:00:00
1:00 AM,53.6,1.4,12,30.09,-9999.0,WNW,2.3,-,N/A,,Clear,290,2013-10-14 23:00:00
2:00 AM,52,1,5,,25,Calm,Calm,,,,,,2013-10-15 00:00:00
2:00 AM,51.8,1.4,13,30.06,-9999.0,Calm,Calm,-,N/A,,Unknown,0,2013-10-15 00:00:00
3:00 AM,55.4,3.2,12,30.06,-9999.0,NNE,2.3,-,N/A,,Clear,20,2013-10-15 01:00:00
4:00 AM,50.0,3.2,15,30.06,-9999.0,North,2.3,-,N/A,,Clear,10,2013-10-15 02:00:00
5:00 AM,53,1,5,,25,East,2.3,,,,Clear,80,2013-10-15 03:00:00
5:00 AM,51.8,1.4,13,30.06,-9999.0,East,2.3,-,N/A,,Clear,80,2013-10-15 03:00:00
6:00 AM,51.8,5.0,15,30.06,-9999.0,NE,1.2,-,N/A,,Clear,40,2013-10-15 04:00:00
6:38 AM,57.2,8.6,14,30.09,-9999.0,ENE,1.2,-,N/A,,Clear,70,2013-10-15 04:38:00
7:00 AM,60.8,8.6,13,30.09,-9999.0,Calm,Calm,-,N/A,,Clear,0,2013-10-15 05:00:00
7:33 AM,66.2,10.4,11,30.12,-9999.0,East,3.5,-,N/A,,Clear,90,2013-10-15 05:33:00
8:00 AM,72,8,4,,25,ENE,4.6,,,,Clear,60,2013-10-15 06:00:00
8:00 AM,71.6,8.6,9,30.12,-9999.0,ENE,3.5,-,N/A,,Clear,60,2013-10-15 06:00:00
8:20 AM,75.2,8.6,8,30.12,-9999.0,NNE,5.8,-,N/A,,Clear,30,2013-10-15 06:20:00
9:00 AM,78.8,8.6,7,30.12,-9999.0,NNE,5.8,-,N/A,,Clear,30,2013-10-15 07:00:00
9:18 AM,84.2,8.6,6,30.12,-9999.0,NNE,5.8,-,N/A,,Clear,30,2013-10-15 07:18:00
10:00 AM,87.8,10.4,6,30.12,-9999.0,North,9.2,-,N/A,,Clear,360,2013-10-15 08:00:00
11:00 AM,90,10,4,,25,NNW,9.2,,,,Clear,340,2013-10-15 09:00:00
11:00 AM,89.6,10.4,5,30.12,-9999.0,NNW,8.1,-,N/A,,Clear,340,2013-10-15 09:00:00
12:00 PM,91.4,14.0,6,30.09,-9999.0,WNW,9.2,-,N/A,,Clear,290,2013-10-15 10:00:00
1:00 PM,93.2,8.6,4,30.09,-9999.0,WNW,5.8,-,N/A,,Clear,290,2013-10-15 11:00:00
2:00 PM,94,8,4,,25,WSW,9.2,,,,Clear,250,2013-10-15 12:00:00
2:00 PM,93.2,8.6,4,30.04,-9999.0,WSW,8.1,-,N/A,,Clear,250,2013-10-15 12:00:00
3:00 PM,95.0,10.4,4,30.04,-9999.0,West,9.2,20.7,N/A,,Clear,280,2013-10-15 13:00:00
4:00 PM,95.0,10.4,4,30.01,-9999.0,WSW,5.8,-,N/A,,Clear,250,2013-10-15 14:00:00
5:00 PM,95,9,4,,25,West,10.4,,,,Clear,260,2013-10-15 15:00:00
5:00 PM,95.0,10.4,4,30.01,-9999.0,West,10.4,-,N/A,,Clear,260,2013-10-15 15:00:00
6:00 PM,93.2,8.6,4,30.01,-9999.0,WSW,8.1,-,N/A,,Clear,250,2013-10-15 16:00:00
7:00 PM,80.6,12.2,8,30.04,-9999.0,SSW,5.8,-,N/A,,Clear,200,2013-10-15 17:00:00
8:00 PM,79,13,4,,25,South,4.6,,,,Clear,190,2013-10-15 18:00:00
8:00 PM,78.8,14.0,9,30.04,-9999.0,South,4.6,-,N/A,,Clear,190,2013-10-15 18:00:00
9:00 PM,75.2,14.0,10,30.06,-9999.0,South,2.3,-,N/A,,Unknown,180,2013-10-15 19:00:00
10:00 PM,71.6,12.2,10,30.06,-9999.0,SSW,2.3,-,N/A,,Unknown,210,2013-10-15 20:00:00
11:00 PM,71,14,5,,,SW,9.2,,,,,220,2013-10-15 21:00:00
11:00 PM,69.8,15.8,13,30.09,-9999.0,SW,8.1,-,N/A,,Unknown,220,2013-10-15 21:00:00